FW8570 Weather Reports


Display with metric or nautical units.
time (UTC)temp
F
wind
direction
speed
MPH
gust
MPH
rain 1hr
in
rain 24hr
in
rain mn
in
humidity
%
barometer
mb
20260504050311 58 137 1.0 2.0 0.00 0.00 0.00 62 1012.2
20260504045808 58 131 2.0 3.0 0.00 0.00 0.00 59 1012.3
20260504045308 58 132 0.0 1.0 0.00 0.00 0.00 60 1012.2
20260504044805 58 137 1.0 1.0 0.00 0.00 0.00 59 1012.2
20260504044303 58 123 1.0 2.0 0.00 0.00 0.00 59 1012.1
20260504043800 58 122 1.0 1.0 0.00 0.00 0.00 59 1012.3
20260504043257 58 117 0.0 1.0 0.00 0.00 0.00 60 1012.3
20260504042755 58 181 3.0 3.0 0.00 0.00 0.00 59 1012.3
20260504042251 58 140 3.0 4.0 0.00 0.00 0.00 60 1012.3
20260504041747 58 148 3.0 4.0 0.00 0.00 0.00 61 1012.2
20260504041243 57 166 3.0 4.0 0.00 0.00 0.00 60 1012.4
20260504040739 57 173 3.0 3.0 0.00 0.00 0.00 63 1012.5
20260504040237 57 138 0.0 1.0 0.00 0.00 0.00 62 1012.4
20260504035733 57 140 1.0 1.0 0.00 0.00 0.00 63 1012.5
20260504035231 57 139 1.0 1.0 0.00 0.00 0.00 62 1012.3
20260504034728 57 186 2.0 2.0 0.00 0.00 0.00 62 1012.4
20260504034225 57 167 4.0 4.0 0.00 0.00 0.00 62 1012.6
20260504033723 57 160 2.0 2.0 0.00 0.00 0.00 64 1012.6
20260504033220 56 175 3.0 3.0 0.00 0.00 0.00 65 1012.8
20260504032717 56 135 2.0 2.0 0.00 0.00 0.00 66 1012.8
20260504032214 55 146 2.0 2.0 0.00 0.00 0.00 67 1012.9
20260504031710 55 136 1.0 2.0 0.00 0.00 0.00 69 1012.8
20260504031208 55 167 2.0 2.0 0.00 0.00 0.00 70 1012.9
20260504030704 55 138 1.0 1.0 0.00 0.00 0.00 72 1013.2
20260504030201 54 186 1.0 2.0 0.00 0.00 0.00 68 1013.1
20260504025657 54 138 1.0 1.0 0.00 0.00 0.00 70 1013.1
20260504025154 54 145 1.0 2.0 0.00 0.00 0.00 72 1013.2
20260504024651 54 134 0.0 1.0 0.00 0.00 0.00 71 1013.3
20260504024147 54 184 2.0 2.0 0.00 0.00 0.00 69 1013.4
20260504023645 54 134 1.0 1.0 0.00 0.00 0.00 72 1013.4
20260504023141 54 156 1.0 1.0 0.00 0.00 0.00 73 1013.7
20260504022637 54 147 1.0 1.0 0.00 0.00 0.00 73 1013.6
20260504022133 54 155 1.0 1.0 0.00 0.00 0.00 74 1013.5
20260504021631 54 155 1.0 1.0 0.00 0.00 0.00 74 1013.5
20260504021127 54 173 1.0 1.0 0.00 0.00 0.00 75 1013.4
20260504020625 54 238 2.0 2.0 0.00 0.00 0.00 76 1013.2
20260504020120 54 147 1.0 1.0 0.00 0.00 0.00 74 1013.3
20260504015617 55 141 1.0 1.0 0.00 0.00 0.00 71 1013.5
20260504015113 55 153 1.0 1.0 0.00 0.00 0.00 70 1013.3
20260504014609 55 179 1.0 1.0 0.00 0.00 0.00 68 1013.4
20260504014107 55 162 1.0 1.0 0.00 0.00 0.00 67 1013.5
20260504013604 55 149 1.0 1.0 0.00 0.00 0.00 67 1013.4
20260504013101 56 148 1.0 1.0 0.00 0.00 0.00 67 1013.4
20260504012558 56 127 0.0 0.0 0.00 0.00 0.00 66 1013.6
20260504012056 57 134 0.0 1.0 0.00 0.00 0.00 66 1013.3
20260504011553 57 137 0.0 0.0 0.00 0.00 0.00 63 1013.3
20260504011049 58 119 0.0 0.0 0.00 0.00 0.00 59 1013.4
20260504010544 58 123 1.0 1.0 0.00 0.00 0.00 59 1013.1
20260504010041 59 101 0.0 0.0 0.00 0.00 0.00 56 1013.4
20260504005538 60 121 0.0 0.0 0.00 0.00 0.00 55 1013.1
20260504005035 60 126 1.0 1.0 0.00 0.00 0.00 55 1013.0
20260504004533 61 139 1.0 1.0 0.00 0.00 0.00 54 1013.1
20260504004030 61 180 2.0 2.0 0.00 0.00 0.00 52 1012.7
20260504003526 62 142 2.0 2.0 0.00 0.00 0.00 52 1012.6
20260504003023 62 184 3.0 4.0 0.00 0.00 0.00 48 1012.8
20260504002520 62 141 3.0 4.0 0.00 0.00 0.00 51 1012.2
20260504002017 62 128 2.0 3.0 0.00 0.00 0.00 50 1012.6
20260504001515 63 179 2.0 3.0 0.00 0.00 0.00 49 1012.6
20260504001011 64 144 2.0 3.0 0.00 0.00 0.00 47 1012.4
20260504000508 64 152 6.0 7.0 0.00 0.00 0.00 45 1012.5
20260504000005 64 186 7.0 8.0 0.00 0.00 0.00 44 1012.7
20260503235503 65 302 4.0 8.0 0.00 0.00 0.00 44 1012.6
20260503235000 66 233 2.0 3.0 0.00 0.00 0.00 44 1012.4
20260503234457 66 128 1.0 2.0 0.00 0.00 0.00 44 1012.9
20260503233955 66 177 7.0 10.0 0.00 0.00 0.00 43 1012.7
20260503233451 66 198 8.0 9.0 0.00 0.00 0.00 42 1012.7
20260503232948 67 240 5.0 8.0 0.00 0.00 0.00 43 1012.9
20260503232445 67 250 3.0 3.0 0.00 0.00 0.00 44 1012.6
20260503231943 67 129 2.0 2.0 0.00 0.00 0.00 42 1012.6
20260503231440 67 140 3.0 3.0 0.00 0.00 0.00 44 1012.7
20260503230936 67 190 6.0 9.0 0.00 0.00 0.00 43 1012.6
20260503230433 68 203 1.0 2.0 0.00 0.00 0.00 43 1012.9
20260503225931 68 117 2.0 2.0 0.00 0.00 0.00 43 1013.0
20260503225427 68 185 4.0 4.0 0.00 0.00 0.00 42 1013.2
20260503224923 68 177 5.0 7.0 0.00 0.00 0.00 40 1013.3
20260503224420 68 121 2.0 2.0 0.00 0.00 0.00 42 1013.2
20260503223918 68 127 6.0 11.0 0.00 0.00 0.00 40 1013.4
20260503223416 68 168 10.0 13.0 0.00 0.00 0.00 40 1013.6
20260503222916 68 112 2.0 3.0 0.00 0.00 0.00 43 1013.6
20260503222415 68 179 4.0 6.0 0.00 0.00 0.00 41 1013.7
20260503221913 68 167 4.0 6.0 0.00 0.00 0.00 40 1013.8
20260503221411 68 195 6.0 10.0 0.00 0.00 0.00 39 1013.9
20260503220907 68 227 5.0 9.0 0.00 0.00 0.00 39 1013.8
20260503220404 68 166 4.0 4.0 0.00 0.00 0.00 40 1014.0
20260503215900 69 233 7.0 9.0 0.00 0.00 0.00 40 1014.3
20260503215358 69 215 3.0 3.0 0.00 0.00 0.00 40 1014.2
20260503214855 70 236 2.0 2.0 0.00 0.00 0.00 40 1014.2
20260503214352 69 225 3.0 3.0 0.00 0.00 0.00 43 1014.3
20260503213850 69 242 6.0 8.0 0.00 0.00 0.00 39 1014.5
20260503213347 69 152 6.0 7.0 0.00 0.00 0.00 42 1014.5
20260503212844 68 252 4.0 6.0 0.00 0.00 0.00 42 1014.5
20260503212342 69 258 7.0 9.0 0.00 0.00 0.00 40 1014.4
20260503211839 69 311 4.0 7.0 0.00 0.00 0.00 41 1014.8
20260503211335 69 206 5.0 6.0 0.00 0.00 0.00 40 1015.0
20260503210831 69 175 4.0 6.0 0.00 0.00 0.00 39 1015.0
20260503210328 69 246 6.0 10.0 0.00 0.00 0.00 40 1015.1
20260503205823 69 330 2.0 2.0 0.00 0.00 0.00 40 1015.1
20260503205320 68 178 4.0 6.0 0.00 0.00 0.00 40 1015.3
20260503204817 68 190 6.0 10.0 0.00 0.00 0.00 38 1015.5
20260503204314 69 155 7.0 10.0 0.00 0.00 0.00 37 1015.4
20260503203811 69 142 5.0 6.0 0.00 0.00 0.00 39 1015.4
20260503203308 69 158 3.0 4.0 0.00 0.00 0.00 42 1015.7
20260503202805 69 239 4.0 6.0 0.00 0.00 0.00 39 1015.7
20260503202304 68 210 3.0 3.0 0.00 0.00 0.00 40 1015.7
20260503201801 68 161 4.0 6.0 0.00 0.00 0.00 39 1015.8
20260503201258 68 131 2.0 3.0 0.00 0.00 0.00 42 1016.2
20260503200755 67 203 5.0 7.0 0.00 0.00 0.00 40 1016.2
20260503200251 67 157 11.0 13.0 0.00 0.00 0.00 39 1016.1
20260503195749 68 203 2.0 4.0 0.00 0.00 0.00 42 1016.4
20260503195245 67 199 2.0 4.0 0.00 0.00 0.00 42 1016.5
20260503194743 67 158 3.0 4.0 0.00 0.00 0.00 41 1016.6
20260503194238 67 171 4.0 7.0 0.00 0.00 0.00 40 1016.6
20260503193734 68 165 9.0 10.0 0.00 0.00 0.00 39 1017.0
20260503193231 67 234 4.0 6.0 0.00 0.00 0.00 43 1017.0
20260503192726 66 259 4.0 8.0 0.00 0.00 0.00 41 1016.9
20260503192222 67 266 6.0 11.0 0.00 0.00 0.00 40 1017.0
20260503191719 67 252 3.0 6.0 0.00 0.00 0.00 44 1017.3
20260503191216 66 232 3.0 3.0 0.00 0.00 0.00 42 1017.5
20260503190713 66 226 4.0 8.0 0.00 0.00 0.00 43 1017.8
20260503190209 66 210 2.0 3.0 0.00 0.00 0.00 43 1017.7
20260503185707 66 152 2.0 2.0 0.00 0.00 0.00 42 1018.0
20260503185202 66 202 6.0 8.0 0.00 0.00 0.00 42 1017.8
20260503184657 65 134 4.0 7.0 0.00 0.00 0.00 41 1017.9
20260503184154 65 224 6.0 7.0 0.00 0.00 0.00 43 1018.1
20260503183649 65 205 2.0 4.0 0.00 0.00 0.00 41 1018.0
20260503183147 65 231 2.0 3.0 0.00 0.00 0.00 40 1018.3
20260503182645 65 170 4.0 8.0 0.00 0.00 0.00 42 1018.5
20260503182144 65 196 2.0 7.0 0.00 0.00 0.00 41 1018.5
20260503181640 64 165 2.0 2.0 0.00 0.00 0.00 45 1018.6
20260503181137 65 183 3.0 4.0 0.00 0.00 0.00 40 1018.6
20260503180634 64 125 4.0 7.0 0.00 0.00 0.00 44 1018.5
20260503180132 64 176 2.0 2.0 0.00 0.00 0.00 43 1018.8
20260503175629 64 234 4.0 7.0 0.00 0.00 0.00 42 1018.9
20260503175126 64 220 2.0 3.0 0.00 0.00 0.00 38 1019.0
20260503174622 64 264 2.0 3.0 0.00 0.00 0.00 42 1019.0
20260503174119 63 232 1.0 2.0 0.00 0.00 0.00 39 1019.1
20260503173614 64 146 5.0 7.0 0.00 0.00 0.00 41 1019.1
20260503173111 64 196 3.0 3.0 0.00 0.00 0.00 42 1019.2
20260503172608 64 233 2.0 3.0 0.00 0.00 0.00 41 1019.3
20260503172105 64 126 3.0 4.0 0.00 0.00 0.00 44 1019.4
20260503171601 64 168 5.0 6.0 0.00 0.00 0.00 38 1019.4
20260503171059 64 229 2.0 3.0 0.00 0.00 0.00 45 1019.7
20260503170555 64 121 2.0 2.0 0.00 0.00 0.00 45 1019.7
20260503150948 59 289 2.0 3.0 0.00 0.00 0.00 45 1020.9
20260503150444 59 253 4.0 4.0 0.00 0.00 0.00 49 1020.7
20260503131337 47 124 1.0 2.0 0.00 0.00 0.00 90 1020.8
20260503130835 46 137 1.0 2.0 0.00 0.00 0.00 99 1020.9
20260503130333 46 134 2.0 3.0 0.00 0.00 0.00 99 1020.7
20260503110726 33 133 0.0 1.0 0.00 0.00 0.00 99 1020.1
20260503110223 33 133 0.0 0.0 0.00 0.00 0.00 99 1020.3
20260503100149 33 133 0.0 1.0 0.00 0.00 0.00 99 1020.1
20260503090109 34 139 1.0 1.0 0.00 0.00 0.00 99 1020.1
20260503081544 35 127 0.0 0.0 0.00 0.00 0.00 99 1019.9
20260503081042 35 127 0.0 0.0 0.00 0.00 0.00 99 1020.1
20260503080537 35 127 0.0 0.0 0.00 0.00 0.00 99 1019.8
20260503072512 36 129 0.0 0.0 0.00 0.00 0.00 99 1019.7
20260503072009 36 129 0.0 0.0 0.00 0.00 0.00 99 1019.6
20260503071505 36 130 0.0 0.0 0.00 0.00 0.00 99 1019.7
20260503071001 36 129 0.0 0.0 0.00 0.00 0.00 99 1019.6
20260503070459 36 129 1.0 1.0 0.00 0.00 0.00 99 1019.6